Regional Weather Roundup
Issued by NWS

Home | Current Version | Previous Version | Text Only | Print | Product List | Glossary Off
Versions: 1 2 3 4 5 6 7 8 9 10 11 12 13 14 15 16 17 18 19 20 21 22 23 24 25 26 27 28 29 30 31 32 33 34 35 36 37 38 39 40 41 42 43 44 45 46 47 48 49 50

000
ASUS43 KLSX 262159
RWRMO

WEATHER SUMMARY FOR MISSOURI
NATIONAL WEATHER SERVICE SPRINGFIELD MO
400 PM CST WED NOV 26 2014

NOTE: "FAIR" INDICATES FEW OR NO CLOUDS BELOW 12,000 FEET WITH NO
       SIGNIFICANT WEATHER AND/OR OBSTRUCTIONS TO VISIBILITY.
       CURRENT SKY AND/OR WEATHER CONDITIONS ARE NOT AVAILABLE FOR
       CHILLICOTHE AND FARMINGTON.

MOZ001>031-035>038-043-044-053-054-262300-
...NORTHERN AND WESTERN MISSOURI...

CITY           SKY/WX    TMP DP  RH WIND       PRES   REMARKS
KANSAS CTY INT CLOUDY    34  27  75 NW24G31   30.13R WCI  21
KANSAS C DTWN  CLOUDY    36  27  69 NW18G26   30.14R WCI  26
LEE`S SUMMIT   CLOUDY    35  28  75 NW17G31   30.12R WCI  25
ST JOSEPH      CLOUDY    32  26  78 NW25G32   30.17R WCI  19
CHILLICOTHE      N/A     35  29  78 NW13G18   30.07R WCI  26
KIRKSVILLE     LGT SNOW  33  33 100 NE5       29.99R VSB 1   WCI  29

$$
MOZ066>068-077>081-088>096-101>105-262300-
...SOUTHWEST MISSOURI...

CITY           SKY/WX    TMP DP  RH WIND       PRES   REMARKS
SPRINGFIELD    CLOUDY    45  26  47 W14G22    30.07R
JOPLIN         CLOUDY    47  25  42 NW17G25   30.14R

$$
MOZ032>034-039>042-045>050-055>058-069>072-262300-
...CENTRAL MISSOURI...

CITY           SKY/WX    TMP DP  RH WIND       PRES   REMARKS
COLUMBIA       LGT RAIN  38  35  89 W15G23    30.00R WCI  29
JEFFERSON CITY LGT RAIN  40  35  83 W15G21    30.01R
ROLLA          CLOUDY    38  35  89 W7        29.98R
SEDALIA        CLOUDY    39  32  76 NW26G35   30.06R WCI  28
WARRENSBURG    CLOUDY    36  32  87 NW17G26   30.09R WCI  25
OSAGE BEACH    MOCLDY    43  30  61 W13G21    30.03R

$$
MOZ051-052-059>065-262300-
...EAST CENTRAL MISSOURI...

CITY           SKY/WX    TMP DP  RH WIND       PRES   REMARKS
ST LOUIS INTL  LGT SNOW  34  32  92 CALM      30.01R FOG
SPIRIT OF STL  CLOUDY    34  32  92 CALM      30.01R FOG
ST CHARLES     CLOUDY    32  32 100 E7        30.02R FOG     WCI  26

$$
MOZ072>076-082>087-097>100-106>115-262300-
...SOUTH CENTRAL AND SOUTHEAST MISSOURI...

CITY           SKY/WX    TMP DP  RH WIND       PRES   REMARKS
CAPE GIRARDEAU CLOUDY    37  36  96 CALM      30.02R
FARMINGTON     CLOUDY    34  32  93 SW5       30.00R WCI  30
POPLAR BLUFF   CLOUDY    41  34  76 NW9       30.02R
WEST PLAINS    CLOUDY    39  33  79 W12G23    30.03R

$$



USA.gov is the U.S. government's official web portal to all federal, state and local government web resources and services.